Regional Weather Roundup
Issued by NWS

Home | Current Version | Previous Version | Graphics & Text | Print | Product List | Glossary On
Versions: 1 2 3 4 5 6 7 8 9 10 11 12 13 14 15 16 17 18 19 20 21 22 23 24 25 26 27 28 29 30 31 32 33 34 35 36 37 38 39 40 41 42 43 44 45 46 47 48 49 50
000
ASUS43 KIND 130959
RWRIN

WEATHER ROUNDUP FOR INDIANA
NATIONAL WEATHER SERVICE INDIANAPOLIS IN
500 AM EST SAT FEB 13 2016

NOTE: "FAIR" INDICATES FEW OR NO CLOUDS BELOW 12,000 FEET WITH NO
SIGNIFICANT WEATHER AND/OR OBSTRUCTIONS TO VISIBILITY.

* - STATION DOES NOT REPORT WEATHER SUCH AS PRECIPITATION OR FOG.

+ - STATION NOT QUALITY CONTROLLED BY THE NATIONAL WEATHER SERVICE.
    USE DATA WITH CAUTION...ESPECIALLY DEWPOINT AND RELATIVE
    HUMIDITY OBSERVATIONS.

INZ001>003-010>013-019-020-131100-
NORTHWEST INDIANA

CITY           SKY/WX    TMP DP  RH WIND       PRES   REMARKS
RENSSELAER +   PTCLDY     9  -9  43 NW14      30.52R WCI  -8

$$

LMZ046-743>745-131100-
SOUTHERN LAKE MICHIGAN

STATION/POSITION TIME  TEMP    WIND        PRES    WAVE
                       AIR SEA DIR/SP/G            HT
                 (UTC) (F)     (DEG/KT/KT) (MB)    (FT)
BURNS HARBOR     0906   12     310/ 17     1032.5R
MICHIGAN CITY    0900   13     310/ 28/ 31   N/A

$$

INZ004-005-014>016-021>024-131100-
NORTH CENTRAL INDIANA

CITY           SKY/WX    TMP DP  RH WIND       PRES   REMARKS
GOSHEN         FLURRIES   2  -2  83 W6        30.43R WCI  -9
SOUTH BEND     FLURRIES   6   3  87 SE3       30.44R

$$

INZ006>009-017-018-025>027-131100-
NORTHEAST INDIANA

CITY           SKY/WX    TMP DP  RH WIND       PRES   REMARKS
ANGOLA *+      CLEAR      0  -8  71 VRB5      30.36R WCI -10
FORT WAYNE     PTCLDY     3  -6  66 W6        30.43R WCI  -8

$$

INZ028-029-035-036-043>045-051>053-131100-
WEST CENTRAL INDIANA

CITY           SKY/WX    TMP DP  RH WIND       PRES   REMARKS
CRAWFORDSVL +  PTCLDY     6  -8  53 NW10      30.49R WCI  -9
GREENCASTLE +  CLEAR     10  -9  40 NW7       30.48R WCI   0
LAFAYETTE      PTCLDY     7  -5  57 NW13      30.51R WCI  -9
TERRE HAUTE    CLEAR     10  -3  55 N12       30.53R WCI  -5

$$

INZ030>032-037>040-046>048-054>057-064-065-131100-
CENTRAL INDIANA

CITY           SKY/WX    TMP DP  RH WIND       PRES   REMARKS
GREENWOOD *+   CLEAR     12   1  62 NW10G17   30.45R WCI  -1
INDIANAPOLIS   PTCLDY    10  -3  55 NW13      30.45R WCI  -5
-EAGLE CREEK   PTCLDY    10  -2  58 NW10      30.46R WCI  -4
KOKOMO *+      CLEAR      9  -2  61 NW15      30.44R WCI  -8
MT COMFORT *+  CLEAR      9   0  66 NW9       30.44R WCI  -5
SHELBYVILLE    PTCLDY    12   0  58 NW14      30.44R WCI  -3

$$

INZ033-034-041-042-049-050-058-059-131100-
EAST CENTRAL INDIANA

CITY           SKY/WX    TMP DP  RH WIND       PRES   REMARKS
MUNCIE         MOCLDY    11   3  70 NW14      30.41R WCI  -5

$$

INZ060-061-067>069-081>083-085>088-131100-
SOUTHWEST INDIANA

CITY           SKY/WX    TMP DP  RH WIND       PRES   REMARKS
EVANSVILLE     CLEAR     17   3  54 NW8       30.55R WCI   7
HUNTINGBURG *+ CLEAR     16   3  57 NW12G18   30.51R WCI   3

$$

INZ062-063-066-070>080-084-089>092-131100-
SOUTH CENTRAL AND SOUTHEAST INDIANA

CITY           SKY/WX    TMP DP  RH WIND       PRES   REMARKS
BLOOMINGTON    PTCLDY    11  -3  53 N6        30.47R WCI   1
MADISON *+     CLEAR     16   1  53 NW7       30.45R WCI   6
SEYMOUR +      CLEAR     16   1  53 NW9       30.47R WCI   4

$$




USA.gov is the U.S. government's official web portal to all federal, state and local government web resources and services.